This demonstration page uses our WeatherBlox Daily Observations layout. Learn more.

Left ArrowRight Arrow

Hourly Observations for January 29, 2022

Temp ( °F °C ) Dew Point ( °F °C ) Humidity (%) Winds ( mph kmh ) Pressure ( in mb ) Visibility ( mi km ) Precip ( " mm )
12:15 am 00:15 Clear 0 -18 -2 -19 92 92 Calm 30.41 1030 10 16 N/A
12:35 am 00:35 Clear 0 -18 -2 -19 92 92 Calm 30.41 1030 10 16 N/A
12:55 am 00:55 Clear 0 -18 -2 -19 92 92 Calm 30.40 1029 10 16 N/A
1:15 am 01:15 Clear -2 -19 -2 -19 100 100 Calm 30.40 1029 10 16 N/A
1:35 am 01:35 Clear -2 -19 -4 -20 92 92 Calm 30.39 1029 10 16 N/A
1:55 am 01:55 Clear -2 -19 -2 -19 100 100 Calm 30.39 1029 10 16 N/A
2:15 am 02:15 Clear -2 -19 -4 -20 92 92 Calm 30.39 1029 10 16 N/A
2:35 am 02:35 Clear -4 -20 -8 -22 84 84 Calm 30.39 1029 10 16 N/A
2:55 am 02:55 Clear -4 -20 -4 -20 100 100 Calm 30.38 1029 10 16 N/A
3:15 am 03:15 Clear -2 -19 -4 -20 92 92 WSW 3 6 30.39 1029 10 16 N/A
3:35 am 03:35 Clear -2 -19 -4 -20 92 92 Calm 30.39 1029 10 16 N/A
3:55 am 03:55 Clear -2 -19 -4 -20 92 92 Calm 30.39 1029 10 16 N/A
4:15 am 04:15 Clear -4 -20 -6 -21 92 92 Calm 30.38 1029 10 16 N/A
4:35 am 04:35 Clear -6 -21 -8 -22 92 92 Calm 30.39 1029 7 11 N/A
4:55 am 04:55 Clear -6 -21 -8 -22 92 92 Calm 30.39 1029 10 16 N/A
5:15 am 05:15 Clear -6 -21 -8 -22 92 92 Calm 30.39 1029 10 16 N/A
5:35 am 05:35 Clear -6 -21 -9 -23 84 84 Calm 30.40 1029 10 16 N/A
5:55 am 05:55 Clear -8 -22 -9 -23 92 92 Calm 30.40 1030 10 16 N/A
6:15 am 06:15 Clear -4 -20 -8 -22 84 84 Calm 30.38 1029 10 16 N/A
6:35 am 06:35 Clear -4 -20 -8 -22 84 84 Calm 30.39 1029 10 16 N/A
6:55 am 06:55 Clear -6 -21 -8 -22 92 92 Calm 30.40 1029 10 16 N/A
7:15 am 07:15 Clear -6 -21 -8 -22 92 92 Calm 30.40 1029 10 16 N/A
7:35 am 07:35 Clear -6 -21 -9 -23 84 84 Calm 30.40 1029 10 16 N/A
7:55 am 07:55 Sunny -6 -21 -9 -23 84 84 Calm 30.40 1029 10 16 N/A
8:15 am 08:15 Partly Cloudy -4 -20 -8 -22 84 84 Calm 30.39 1029 10 16 N/A
8:35 am 08:35 Mostly Cloudy -4 -20 -6 -21 92 92 Calm 30.38 1029 10 16 N/A
8:55 am 08:55 Partly Cloudy -2 -19 -4 -20 92 92 Calm 30.38 1029 10 16 N/A
9:15 am 09:15 Sunny 1 -17 0 -18 92 92 Calm 30.38 1029 10 16 N/A
9:35 am 09:35 Partly Cloudy 5 -15 3 -16 92 92 Calm 30.37 1029 7 11 N/A
9:55 am 09:55 Partly Cloudy 9 -13 7 -14 92 92 SSE 5 7 30.37 1028 7 11 N/A
10:15 am 10:15 Cloudy 9 -13 7 -14 92 92 SSE 3 6 30.37 1028 10 16 N/A
10:35 am 10:35 undefined N/A N/A N/A SSE 5 7 N/A N/A N/A
10:55 am 10:55 Cloudy 10 -12 10 -12 100 100 SSE 5 7 30.36 1028 10 16 N/A
11:15 am 11:15 Cloudy 12 -11 10 -12 92 92 S 5 7 30.35 1028 10 16 N/A
11:35 am 11:35 Cloudy 14 -10 12 -11 92 92 S 5 7 30.33 1027 10 16 N/A
11:55 am 11:55 Cloudy 16 -9 10 -12 79 79 S 6 9 30.32 1027 10 16 N/A
12:15 pm 12:15 Cloudy 18 -8 10 -12 73 73 S 7 11 30.31 1026 10 16 N/A
12:35 pm 12:35 Cloudy 18 -8 12 -11 79 79 SSE 7 11 30.29 1026 10 16 N/A
12:55 pm 12:55 Cloudy 19 -7 12 -11 73 73 SSE 8 13 30.27 1025 10 16 N/A
1:15 pm 13:15 Cloudy 19 -7 12 -11 73 73 S 8 13 30.26 1025 10 16 N/A
1:35 pm 13:35 Mostly Cloudy 21 -6 14 -10 74 74 S 8 13 30.24 1024 10 16 N/A
1:55 pm 13:55 Cloudy 21 -6 12 -11 68 68 SSW 10 17 30.23 1024 10 16 N/A
2:15 pm 14:15 Cloudy 21 -6 12 -11 68 68 SSW 10 17 30.22 1023 10 16 N/A
2:35 pm 14:35 Mostly Cloudy 23 -5 12 -11 63 63 S 6 9 30.19 1022 10 16 N/A
2:55 pm 14:55 Cloudy 21 -6 10 -12 63 63 SSW 9 15 30.20 1023 10 16 N/A
3:15 pm 15:15 Cloudy 23 -5 12 -11 63 63 SSW 8 13 30.18 1022 10 16 N/A
3:35 pm 15:35 Cloudy 23 -5 10 -12 58 58 S 8 13 30.16 1021 10 16 N/A
3:55 pm 15:55 Mostly Cloudy 25 -4 9 -13 50 50 SSW 10 17 30.15 1021 10 16 N/A
4:15 pm 16:15 Cloudy 25 -4 10 -12 54 54 SSW 9 15 30.14 1021 10 16 N/A
4:35 pm 16:35 Cloudy 23 -5 10 -12 58 58 SW 8 13 30.14 1021 10 16 N/A
4:55 pm 16:55 Cloudy 23 -5 12 -11 63 63 WSW 6 9 30.15 1021 10 16 N/A
5:15 pm 17:15 Cloudy 23 -5 10 -12 58 58 SW 3 6 30.14 1021 10 16 N/A
5:35 pm 17:35 Cloudy 23 -5 12 -11 63 63 SSE 5 7 30.12 1020 10 16 N/A
5:55 pm 17:55 Partly Cloudy 21 -6 9 -13 58 58 SSW 8 13 30.12 1020 10 16 N/A
6:15 pm 18:15 Partly Cloudy 21 -6 9 -13 58 58 S 3 6 30.12 1020 10 16 N/A
6:35 pm 18:35 Clear 19 -7 9 -13 63 63 S 5 7 30.11 1020 10 16 N/A
6:55 pm 18:55 Clear 19 -7 9 -13 63 63 S 3 6 30.11 1020 10 16 N/A
7:15 pm 19:15 Clear 19 -7 9 -13 63 63 S 3 6 30.11 1020 10 16 N/A
7:35 pm 19:35 Clear 19 -7 9 -13 63 63 S 5 7 30.12 1020 10 16 N/A
7:55 pm 19:55 Mostly Cloudy 19 -7 9 -13 63 63 S 5 7 30.11 1020 10 16 N/A
8:15 pm 20:15 Mostly Cloudy 19 -7 10 -12 68 68 SSE 5 7 30.11 1020 10 16 N/A
8:35 pm 20:35 Partly Cloudy 19 -7 10 -12 68 68 S 5 7 30.10 1019 10 16 N/A
8:55 pm 20:55 Partly Cloudy 19 -7 10 -12 68 68 S 5 7 30.09 1019 10 16 N/A
9:15 pm 21:15 Partly Cloudy 19 -7 10 -12 68 68 S 6 9 30.08 1019 10 16 N/A
9:35 pm 21:35 Clear 19 -7 10 -12 68 68 SSW 7 11 30.08 1019 10 16 N/A
9:55 pm 21:55 Partly Cloudy 19 -7 10 -12 68 68 SSW 5 7 30.09 1019 10 16 N/A
10:15 pm 22:15 Mostly Cloudy 21 -6 12 -11 68 68 S 5 7 30.08 1019 10 16 N/A
10:35 pm 22:35 Cloudy 21 -6 12 -11 68 68 S 5 7 30.07 1018 10 16 N/A
10:55 pm 22:55 Mostly Cloudy 21 -6 12 -11 68 68 SSE 7 11 30.06 1018 10 16 N/A
11:15 pm 23:15 Mostly Cloudy 19 -7 12 -11 73 73 SSE 5 7 30.05 1018 10 16 N/A
11:35 pm 23:35 Mostly Cloudy 19 -7 12 -11 73 73 SSE 7 11 30.03 1017 10 16 N/A
11:55 pm 23:55 Partly Cloudy 19 -7 14 -10 79 79 SSE 8 13 30.01 1016 10 16 N/A

Powered by AerisWeather